Overview Statistics Trail Chart Weather Telemetry Raw packets
 

This is the latest recevied weather packets stored in our database for station/object HB9FHL-13. If no packets are shown the sender has not sent any weather packets the latest 10 day(s).

<< 12 13 14 15 16 17 18 >>
Time Temp. Humidity Pressure Rain* Wind** Luminosity Snow
1788597503 19.44° C - 1026.3 hPa 0 mm - - -
1788597203 19.44° C - 1031 hPa 0 mm - - -
1788596902 20° C - 1021.7 hPa 0 mm - - -
1788596602 19.44° C - 1027.1 hPa 0 mm - - -
1788596319 18.89° C - 1025.4 hPa 0 mm - - -
1788595997 18.89° C - 1027 hPa 0 mm - - -
1788595696 20° C - 1026.5 hPa 0 mm - - -
1788595433 20° C - 1022.5 hPa 0 mm - - -
1788595396 20° C - 1022.5 hPa 0 mm - - -
1788595096 19.44° C - 1025.9 hPa 0 mm - - -
1788594795 19.44° C - 1025.5 hPa 0 mm - - -
1788594494 19.44° C - 1025.2 hPa 0 mm - - -
1788594194 18.89° C - 1021.2 hPa 0 mm - - -
1788593894 19.44° C - 1022.2 hPa 0 mm - - -
1788593593 19.44° C - 1025.6 hPa 0 mm - - -
1788593293 19.44° C - 1025.6 hPa 0 mm - - -
1788592990 20.56° C - 1023.5 hPa 0 mm - - -
1788592393 20.56° C - 1025.6 hPa 0 mm - - -
1788592389 20.56° C - 1025.6 hPa 0 mm - - -
1788592089 20.56° C - 1026.2 hPa 0 mm - - -
1788591788 20.56° C - 1022.1 hPa 0 mm - - -
1788591488 20.56° C - 1024.3 hPa 0 mm - - -
1788591187 20.56° C - 1023.6 hPa 0 mm - - -
1788590887 20.56° C - 1023.1 hPa 0 mm - - -
1788590586 20.56° C - 1024.1 hPa 0 mm - - -

* Rain since midnight (hover to see other rain measurements)
** Current wind speed in m/s (hover to see current wind gust speed)